Location: Baix
(44.7118°N, 4.7648°E)
Time: 17:28:05
(UTC+00:00)

S-56A Canister/Altair - Visible Passes

Search period start: 04 December 2020 00:00
Search period end: 14 December 2020 00:00
Orbit: 632 x 2500 km, 38.9° (Epoch: 03 December)

Date Brightness Start Highest point End Pass type
(mag) Time Alt. Az. Time Alt. Az. Time Alt. Az.
04 Dec 10.3 16:30:53 10° SW 16:43:40 41° SSE 16:53:23 10° E visible
04 Dec 9.2 18:36:03 10° WSW 18:48:46 60° S 18:51:23 48° ESE visible
04 Dec 10.2 20:42:49 10° W 20:48:48 33° WSW 20:48:48 33° WSW visible
05 Dec 9.6 18:02:22 10° WSW 18:15:36 60° S 18:20:27 34° ESE visible
05 Dec 9.7 20:09:06 10° W 20:17:52 47° WSW 20:17:52 47° WSW visible
06 Dec 9.8 17:28:42 10° WSW 17:42:23 59° SSE 17:49:31 23° E visible
06 Dec 9.2 19:35:21 10° W 19:46:56 62° SSW 19:46:56 62° SSW visible
06 Dec 11.0 21:42:28 10° W 21:44:22 15° W 21:44:22 15° W visible
07 Dec 10.0 16:55:05 10° WSW 17:09:06 57° SSE 17:18:35 14° E visible
07 Dec 9.1 19:01:35 10° W 19:14:26 64° S 19:16:01 58° SSE visible
07 Dec 10.6 21:08:44 10° W 21:13:26 25° W 21:13:26 25° W visible
08 Dec 10.2 16:21:32 10° SW 16:35:45 56° SSE 16:46:41 10° E visible
08 Dec 9.4 18:27:49 10° W 18:41:17 66° S 18:45:06 43° ESE visible
08 Dec 10.1 20:34:58 10° W 20:42:32 37° WSW 20:42:32 37° WSW visible
09 Dec 9.7 17:54:03 10° WSW 18:08:03 67° S 18:14:13 29° ESE visible
09 Dec 9.6 20:01:11 10° W 20:11:39 49° SW 20:11:39 49° SW visible
10 Dec 9.8 17:20:19 10° WSW 17:34:43 67° S 17:43:22 18° E visible
10 Dec 9.4 19:27:23 10° W 19:39:57 56° SSW 19:40:47 55° S visible
10 Dec 11.0 21:35:11 10° W 21:38:14 17° W 21:38:14 17° W visible
11 Dec 10.0 16:46:38 10° WSW 17:01:21 67° S 17:12:30 10° E visible
11 Dec 9.5 18:53:35 10° W 19:06:50 60° SSW 19:09:58 46° SSE visible
11 Dec 10.6 21:01:13 10° W 21:07:25 26° WSW 21:07:25 26° WSW visible
12 Dec 10.2 16:13:01 10° WSW 16:27:54 66° S 16:39:40 10° E visible
12 Dec 9.7 18:19:47 10° W 18:33:39 63° SSW 18:39:13 32° SE visible
12 Dec 10.2 20:27:18 10° W 20:36:40 34° SW 20:36:40 34° SW visible
13 Dec 9.9 17:46:00 10° W 18:00:22 65° S 18:08:31 21° ESE visible
13 Dec 9.9 19:53:24 10° W 20:04:57 40° SW 20:05:57 39° SSW visible
